Ceres–Negros F.C. - Philippines Football League
36
sp_team-template-default,single,single-sp_team,postid-36,sportspress,sportspress-page,sp-show-image,ajax_fade,page_not_loaded,boxed,,qode-title-hidden,qode_grid_1200,footer_responsive_adv,hide_top_bar_on_mobile_header,qode-theme-ver-11.1,qode-theme-philippines football league,wpb-js-composer js-comp-ver-5.1.1,vc_responsive

Ceres–Negros F.C.

Name: Ceres Negros FC
City/Province: Bacolod City, Negros Occidental
Venue: Pana-ad Park and Stadium
Head Coach: Risto Vidakovic

DateMatchTime/Results
2017-05-06 16:15:26May 6, 2017 KAYA FC-MAKATI vs CERES NEGROS FC1 - 1
2017-06-03 16:00:15June 3, 2017 CERES NEGROS FC vs GLOBAL CEBU FC1 - 0
2017-06-17 16:00:17June 17, 2017 JPV MARIKINA FC vs CERES NEGROS FC2 - 1
2017-06-24 19:00:36June 24, 2017 CERES NEGROS FC vs KAYA FC-MAKATI3 - 1
2017-06-28 16:00:33June 28, 2017 CERES NEGROS FC vs STALLION LAGUNA FC5 - 1
2017-07-01 16:00:08July 1, 2017 CERES NEGROS FC vs STALLION LAGUNA FC5 - 2
2017-07-05 19:00:20July 5, 2017 GLOBAL CEBU FC vs CERES NEGROS FC1 - 0
2017-07-08 16:00:02July 8, 2017 CERES NEGROS FC vs ILOCOS UNITED FC7 - 0
2017-07-15 16:00:40July 15, 2017 FC MERALCO MANILA vs CERES NEGROS FC0 - 7
2017-07-22 19:00:40July 22, 2017 CERES NEGROS FC vs DAVAO AGUILAS FC2 - 0
2017-08-12 16:00:25August 12, 2017 KAYA FC-MAKATI vs CERES NEGROS FC2 - 3
2017-08-16 16:00:08August 16, 2017 CERES NEGROS FC vs FC MERALCO MANILA1 - 2
2017-09-16 16:00:16September 16, 2017 DAVAO AGUILAS FC vs CERES NEGROS FC1 - 3
2017-09-20 16:00:57September 20, 2017 DAVAO AGUILAS FC vs CERES NEGROS FC1 - 1
2017-09-24 16:00:09September 24, 2017 CERES NEGROS FC vs GLOBAL CEBU FC1 - 0
2017-09-30 19:00:53September 30, 2017 CERES NEGROS FC vs ILOCOS UNITED FC5 - 0
2017-10-14 19:00:40October 14, 2017 CERES NEGROS FC vs KAYA FC-MAKATI3 - 2
2017-10-18 19:00:44October 18, 2017 CERES NEGROS FC vs JPV MARIKINA FC2 - 2
2017-10-21 15:00:02October 21, 2017 STALLION LAGUNA FC vs CERES NEGROS FC0 - 1
2017-10-25 16:00:07October 25, 2017 STALLION LAGUNA FC vs CERES NEGROS FC2 - 0
2017-10-28 16:00:33October 28, 2017 CERES NEGROS FC vs JPV MARIKINA FC5 - 0
2017-11-02 19:00:53November 2, 2017 CERES NEGROS FC vs DAVAO AGUILAS FC5 - 1
2017-11-05 19:00:12November 5, 2017 CERES NEGROS FC vs FC MERALCO MANILA6 - 0
2017-11-08 16:00:17November 8, 2017 JPV MARIKINA FC vs CERES NEGROS FC2 - 2
2017-11-18 19:00:33November 18, 2017 ILOCOS UNITED FC vs CERES NEGROS FC1 - 1
2017-11-21 19:00:02November 21, 2017 ILOCOS UNITED FC vs CERES NEGROS FC1 - 5
2017-11-24 15:00:21November 24, 2017 FC MERALCO MANILA vs CERES NEGROS FC0 - 0
2017-11-28 19:00:59November 28, 2017 GLOBAL CEBU FC vs CERES NEGROS FC2 - 0